THOR ABLESTAR DEB *, 18651

Orbit data source: Space-Track

THOR ABLESTAR DEB *, 18651 is space debris in LEO originally from a launch on Thu, 29 Jun 1961 UTC launched from the Air Force Eastern Test Range (AFETR). Debris objects in space refer to the collection of defunct objects orbiting the Earth. Examples of debris include non-operational satellites, rocket bodies, and fragments generated from explosions, collisions, or faulty payload assembly.

Loading next visibility...
Identifier
18651, 1961-015LW
Orbit
LEO
Country
Flag of USUS
Related business
Manufacturer
Unknown
Mission
Spacecraft
Bus & Motor
Unknown
Mass
Unknown
Launch date (UTC)
1961-06-29 (65 years ago)
Launch vehicle
Unknown
Launch site
Air Force Eastern Test Range (AFETR)
Object type
Payload
Rocket body
Debris
Shape & HBR
Unknown shape, 0.2 m
Radar Cross Section
Medium (>0.1 m² and <1 m²)

Expand to show TLE details & history
Last TLE update: 4 days ago

TLE from 4 days ago
0 THOR ABLESTAR DEB *
1 18651U 61015LW  26195.45609097 -.00000054  00000-0  12564-4 0  9999
2 18651  65.6970 182.5844 0752596 269.8252 169.1298 12.40437290607681
Epoch: 2026-07-14T10:56Z
TLE epoch observation values (Epoch: 2026-07-14T10:56:46.259Z)
Latitude
64.09026°
Longitude
153.79485°
Altitude
2,098.958 km
Speed
6.605 km/s
True Right ascension
16h 41m 15s
True Declination
63° 58' 35"
Sunlit
Object was in daylight at epoch
Visualization orbit readout
Latitude
Unknown
Longitude
Unknown
Altitude
Unknown
Speed
Unknown
Apparent Right ascension
Unknown
Apparent Declination
Unknown
Sunlit
N/A
Visualization observer readout
Local Sidereal Time
14:48:51
Azimuth
Unknown
Elevation
Unknown
Doppler factor
Unknown
Orbital elements
Apogee altitude
2,096.528 km
Perigee altitude
910.21 km
Semi-major axis
7,881.506 km
Eccentricity
0.07526
Inclination
65.697°
RAAN
182.5844°
Arg. of periapsis
269.8252°
True anomaly
170.61806°
Mean anomaly
169.1298°
Eccentric anomaly
169.88696°
Mean motion
3.10191 °/min
Orbital period
116.06 mins
BSTAR
0.000012564
Loading maneuver chart data...
Computing Atmospheric mass density...

Documentation

Showing up to 5 results
|